SCP
0 0 0 0 0 0 0 0 0 0 0 -0 0 0 0 0 0 0 0 0 0 -0 -0 -0 -0 -0 -1 -0 0 0 0 1
0 0 0 0 0 0 0 0 0 0 0 0 0 0 0 0 0 0 0 0 0 1 0 0 0 -0 -0 -0 1 1 1 1
0 0 0 0 0 0 0 0 0 0 0 0 0 0 0 0 0 0 0 0 0 0 0 -0 0 0 -0 -0 0 1 1 1
0 0 0 0 0 0 0 0 0 0 0 0 0 0 0 0 0 0 0 0 0 -0 0 -0 0 -0 -0 -0 -0 1 1 1
0 0 0 0 0 0 0 0 0 0 0 -0 0 0 0 0 0 0 0 0 -0 0 0 -0 0 0 -0 -0 -0 -0 1 1
0 0 0 0 0 0 0 0 0 0 0 0 -0 0 0 0 0 0 0 0 0 0 1 1 0 0 0 -0 -0 -0 0 1
0 0 0 0 0 0 0 0 0 0 0 0 0 0 0 0 0 0 0 0 0 1 1 -0 1 0 1 0 0 -0 0 0
0 0 0 0 0 0 0 0 0 0 0 0 0 -0 -0 0 0 1 1 1 1 1 1 3 4 3 2 1 0 0 0 -0
0 0 0 0 0 0 0 0 0 0 0 0 0 0 0 0 0 1 1 1 1 1 1 2 3 5 3 2 1 0 0 0
0 0 0 0 0 0 0 0 0 0 0 0 0 0 0 0 0 0 1 1 1 0 1 1 -0 1 0 2 2 1 0 0
0 0 0 0 0 0 0 0 0 0 0 0 0 0 0 0 -0 -0 0 0 0 1 1 2 2 2 1 2 1 1 0 0
0 0 0 0 0 0 0 0 0 0 0 0 0 0 0 0 0 -0 0 0 0 0 0 2 3 2 2 3 2 1 0 0
0 0 0 0 0 0 0 0 0 0 0 0 0 0 0 0 0 0 0 0 0 0 0 1 1 2 2 2 2 2 2 1
-0 -0 0 0 0 0 0 0 0 0 0 0 0 0 0 0 0 0 0 0 0 -0 0 0 0 0 2 2 1 4 3 2
-0 -0 0 0 0 0 0 0 0 0 0 0 0 0 0 0 0 0 0 -0 -0 -0 -0 0 0 0 0 4 3 1 5 4
-0 -0 0 0 0 0 -0 0 0 0 0 0 0 0 0 0 0 0 0 0 0 0 -0 -0 0 0 0 0 2 5 4 5
-0 -0 -0 0 0 -0 -0 -0 0 0 0 -0 -0 -0 0 0 0 0 0 0 0 0 0 -0 0 0 0 0 0 5 8 8
0 -0 -0 -0 0 0 0 0 0 0 0 0 0 -0 -0 0 0 0 0 0 0 0 0 0 0 0 0 0 0 3 14 10
-0 0 0 -0 -0 0 0 0 0 0 0 0 0 0 0 0 0 0 0 0 0 0 0 0 0 0 0 0 0 0 7 5
Wind_Speed_500mb
27 41 35 41 38 43 46 44 30 35 34 47 40 43 62 53 47 65 51 61 84 85 90 91 93 98 98 94 91 84 86 86
32 15 24 32 35 34 29 43 47 37 40 28 38 35 35 38 57 74 83 55 46 84 85 86 93 89 91 90 94 89 82 89
35 25 25 26 29 36 34 31 35 33 33 31 24 41 37 42 57 44 34 85 75 70 81 90 88 87 90 91 87 91 88 84
36 36 42 29 40 38 28 36 30 31 35 44 22 15 39 43 74 84 96 90 42 104 86 93 93 92 92 92 91 91 91 84
32 29 34 40 36 39 41 39 41 31 28 49 36 23 24 41 38 39 87 91 84 110 104 102 98 93 91 92 95 87 87 86
30 31 31 24 28 39 42 33 34 40 45 43 33 12 28 25 20 30 48 103 91 109 65 93 94 97 91 88 87 86 83 86
41 48 38 41 39 36 37 49 42 39 46 44 13 45 27 60 54 24 39 17 21 40 52 85 96 96 94 86 86 84 86 88
40 41 36 43 46 40 41 44 45 56 49 41 39 43 65 42 65 47 20 26 28 17 16 62 74 91 93 93 85 85 86 90
37 40 32 39 40 42 38 42 41 41 38 35 31 20 40 42 44 70 38 38 42 41 33 36 65 50 75 86 85 84 88 84
20 25 32 34 37 42 46 49 44 43 46 45 44 33 31 37 24 37 62 48 41 37 44 28 11 52 68 76 81 79 85 82
15 19 32 45 28 11 31 27 31 28 39 63 63 59 14 39 38 13 41 44 43 40 40 42 41 21 6 64 75 83 77 89
17 22 21 32 11 34 32 22 36 49 41 44 66 31 14 27 33 39 35 40 42 44 37 34 46 42 38 25 66 76 74 84
23 23 27 3 4 16 18 7 42 39 47 50 29 22 17 7 14 18 35 39 39 41 35 33 32 33 54 50 38 71 79 73
13 15 28 29 15 6 18 41 48 49 40 46 35 33 25 24 23 24 28 33 35 38 33 30 39 32 36 59 63 33 66 79
13 6 24 21 19 26 30 35 46 53 48 42 36 27 23 19 19 19 22 26 30 34 31 26 30 29 20 35 58 74 36 76
18 11 42 38 33 23 26 34 40 46 43 41 28 23 19 16 27 26 23 27 31 32 30 26 27 26 22 29 50 53 60 72
11 19 46 29 29 34 33 29 35 36 26 21 26 27 20 13 16 21 23 23 26 30 31 27 26 24 20 19 32 48 58 72
6 22 19 22 32 37 37 32 35 30 33 24 30 28 28 21 14 15 19 24 23 26 27 28 27 20 17 11 22 31 40 57
2 15 20 25 21 35 35 34 29 27 26 28 29 28 25 22 18 16 23 25 25 27 26 24 28 20 19 3 17 28 37 43
Wind_Direction_500mb
208 222 223 250 223 237 260 265 253 259 234 229 245 250 195 168 152 209 269 187 185 192 194 195 195 196 195 199 211 214 211 214
297 238 258 239 262 235 233 252 262 265 257 257 202 229 238 167 171 185 222 274 271 187 195 199 199 199 197 200 209 215 217 216
302 266 241 241 257 264 275 239 251 259 258 268 246 201 218 158 162 158 173 225 253 257 197 198 200 199 200 200 205 209 215 218
270 272 281 248 270 266 247 246 265 253 257 262 316 266 200 215 169 182 177 183 217 221 229 190 196 198 200 201 203 210 213 215
260 264 274 269 242 255 267 261 257 263 239 263 288 309 232 206 221 194 167 179 181 218 226 187 190 194 198 201 205 207 206 210
281 290 333 302 268 251 270 259 257 252 263 278 255 321 3 330 252 247 183 187 202 206 185 180 189 191 195 200 202 205 209 208
270 282 297 296 279 283 283 258 259 252 245 259 291 1 344 5 344 269 235 251 243 215 179 223 190 191 193 197 201 203 207 209
276 272 275 271 278 261 267 279 271 264 265 282 318 61 302 353 359 345 19 15 14 357 243 185 187 189 193 195 199 201 207 211
265 273 270 274 255 262 260 264 270 272 268 274 295 31 348 344 7 351 359 2 360 350 352 188 204 187 197 198 196 201 206 211
269 281 273 265 267 273 266 255 263 269 277 284 288 291 300 310 344 329 342 347 343 332 329 346 118 202 210 200 200 203 207 210
260 241 257 275 284 350 342 298 251 335 315 286 268 271 6 18 11 339 321 337 331 327 323 317 307 285 317 199 208 208 211 213
225 235 256 251 56 318 323 264 21 0 346 349 360 245 94 28 8 352 327 326 323 322 311 323 314 297 290 260 212 213 218 216
241 251 250 123 50 341 252 339 345 345 339 347 2 30 7 327 341 357 329 324 323 320 322 306 293 285 277 257 246 225 223 220
221 243 243 34 317 311 354 319 325 324 316 322 330 351 352 354 7 348 325 324 326 321 319 311 283 298 253 256 229 230 226 220
309 289 50 43 360 335 334 316 314 316 305 301 309 318 341 334 349 331 325 328 324 323 317 307 294 298 280 236 251 237 232 222
335 321 343 331 315 324 333 320 309 312 292 294 300 311 326 330 332 339 342 332 337 338 321 317 318 303 290 243 220 231 228 222
271 327 338 19 355 344 328 316 322 314 305 311 294 298 307 315 325 326 329 325 338 350 344 329 315 328 304 258 228 217 218 212
326 311 314 311 336 339 336 329 326 310 305 299 279 283 283 276 294 314 329 333 337 345 349 342 320 331 347 284 214 195 192 196
182 356 348 339 324 350 343 338 321 310 293 290 276 268 259 261 273 319 321 331 331 331 339 333 326 327 3 296 224 215 200 205
Wind_Speed_850mb
27 41 35 41 38 43 46 44 30 35 34 47 40 43 62 53 47 65 51 61 84 85 90 91 93 98 98 94 91 84 86 86
32 15 24 32 35 34 29 43 47 37 40 28 38 35 35 38 57 74 83 55 46 84 85 86 93 89 91 90 94 89 82 89
35 25 25 26 29 36 34 31 35 33 33 31 24 41 37 42 57 44 34 85 75 70 81 90 88 87 90 91 87 91 88 84
36 36 42 29 40 38 28 36 30 31 35 44 22 15 39 43 74 84 96 90 42 104 86 93 93 92 92 92 91 91 91 84
32 29 34 40 36 39 41 39 41 31 28 49 36 23 24 41 38 39 87 91 84 110 104 102 98 93 91 92 95 87 87 86
30 31 31 24 28 39 42 33 34 40 45 43 33 12 28 25 20 30 48 103 91 109 65 93 94 97 91 88 87 86 83 86
41 48 38 41 39 36 37 49 42 39 46 44 13 45 27 60 54 24 39 17 21 40 52 85 96 96 94 86 86 84 86 88
40 41 36 43 46 40 41 44 45 56 49 41 39 43 65 42 65 47 20 26 28 17 16 62 74 91 93 93 85 85 86 90
37 40 32 39 40 42 38 42 41 41 38 35 31 20 40 42 44 70 38 38 42 41 33 36 65 50 75 86 85 84 88 84
20 25 32 34 37 42 46 49 44 43 46 45 44 33 31 37 24 37 62 48 41 37 44 28 11 52 68 76 81 79 85 82
15 19 32 45 28 11 31 27 31 28 39 63 63 59 14 39 38 13 41 44 43 40 40 42 41 21 6 64 75 83 77 89
17 22 21 32 11 34 32 22 36 49 41 44 66 31 14 27 33 39 35 40 42 44 37 34 46 42 38 25 66 76 74 84
23 23 27 3 4 16 18 7 42 39 47 50 29 22 17 7 14 18 35 39 39 41 35 33 32 33 54 50 38 71 79 73
13 15 28 29 15 6 18 41 48 49 40 46 35 33 25 24 23 24 28 33 35 38 33 30 39 32 36 59 63 33 66 79
13 6 24 21 19 26 30 35 46 53 48 42 36 27 23 19 19 19 22 26 30 34 31 26 30 29 20 35 58 74 36 76
18 11 42 38 33 23 26 34 40 46 43 41 28 23 19 16 27 26 23 27 31 32 30 26 27 26 22 29 50 53 60 72
11 19 46 29 29 34 33 29 35 36 26 21 26 27 20 13 16 21 23 23 26 30 31 27 26 24 20 19 32 48 58 72
6 22 19 22 32 37 37 32 35 30 33 24 30 28 28 21 14 15 19 24 23 26 27 28 27 20 17 11 22 31 40 57
2 15 20 25 21 35 35 34 29 27 26 28 29 28 25 22 18 16 23 25 25 27 26 24 28 20 19 3 17 28 37 43
Wind_Direction_850mb
208 222 223 250 223 237 260 265 253 259 234 229 245 250 195 168 152 209 269 187 185 192 194 195 195 196 195 199 211 214 211 214
297 238 258 239 262 235 233 252 262 265 257 257 202 229 238 167 171 185 222 274 271 187 195 199 199 199 197 200 209 215 217 216
302 266 241 241 257 264 275 239 251 259 258 268 246 201 218 158 162 158 173 225 253 257 197 198 200 199 200 200 205 209 215 218
270 272 281 248 270 266 247 246 265 253 257 262 316 266 200 215 169 182 177 183 217 221 229 190 196 198 200 201 203 210 213 215
260 264 274 269 242 255 267 261 257 263 239 263 288 309 232 206 221 194 167 179 181 218 226 187 190 194 198 201 205 207 206 210
281 290 333 302 268 251 270 259 257 252 263 278 255 321 3 330 252 247 183 187 202 206 185 180 189 191 195 200 202 205 209 208
270 282 297 296 279 283 283 258 259 252 245 259 291 1 344 5 344 269 235 251 243 215 179 223 190 191 193 197 201 203 207 209
276 272 275 271 278 261 267 279 271 264 265 282 318 61 302 353 359 345 19 15 14 357 243 185 187 189 193 195 199 201 207 211
265 273 270 274 255 262 260 264 270 272 268 274 295 31 348 344 7 351 359 2 360 350 352 188 204 187 197 198 196 201 206 211
269 281 273 265 267 273 266 255 263 269 277 284 288 291 300 310 344 329 342 347 343 332 329 346 118 202 210 200 200 203 207 210
260 241 257 275 284 350 342 298 251 335 315 286 268 271 6 18 11 339 321 337 331 327 323 317 307 285 317 199 208 208 211 213
225 235 256 251 56 318 323 264 21 0 346 349 360 245 94 28 8 352 327 326 323 322 311 323 314 297 290 260 212 213 218 216
241 251 250 123 50 341 252 339 345 345 339 347 2 30 7 327 341 357 329 324 323 320 322 306 293 285 277 257 246 225 223 220
221 243 243 34 317 311 354 319 325 324 316 322 330 351 352 354 7 348 325 324 326 321 319 311 283 298 253 256 229 230 226 220
309 289 50 43 360 335 334 316 314 316 305 301 309 318 341 334 349 331 325 328 324 323 317 307 294 298 280 236 251 237 232 222
335 321 343 331 315 324 333 320 309 312 292 294 300 311 326 330 332 339 342 332 337 338 321 317 318 303 290 243 220 231 228 222
271 327 338 19 355 344 328 316 322 314 305 311 294 298 307 315 325 326 329 325 338 350 344 329 315 328 304 258 228 217 218 212
326 311 314 311 336 339 336 329 326 310 305 299 279 283 283 276 294 314 329 333 337 345 349 342 320 331 347 284 214 195 192 196
182 356 348 339 324 350 343 338 321 310 293 290 276 268 259 261 273 319 321 331 331 331 339 333 326 327 3 296 224 215 200 205